Location: Liverpool
(53.4163°N, 2.9405°W)
Time: 15:56:34
(UTC+01:00)

ISS - Visible Passes

Search period start: 01 April 2020 00:00
Search period end: 11 April 2020 00:00
Orbit: 416 x 423 km, 51.6° (Epoch: 02 April)

Date Brightness Start Highest point End Pass type
(mag) Time Alt. Az. Time Alt. Az. Time Alt. Az.
01 Apr -1.8 21:34:06 10° W 21:36:39 20° SSW 21:37:45 17° S visible
02 Apr -2.2 20:46:31 10° W 20:49:24 27° SSW 20:52:17 10° SSE visible
03 Apr -1.0 21:37:42 10° SW 21:38:09 10° SW 21:38:38 10° SSW visible
04 Apr -1.2 20:49:00 10° WSW 20:50:58 15° SW 20:52:55 10° S visible
